Tiempo Historia de Granada, Spain

Change the Weather History Date:

Jueves, Marzo 8, 2012

  Actual Average Record
Temperature  
Temperatura media 47 ° F -  
Temperatura máxima 66 ° F 65 ° F 77 ° F (1998)
Temperatura mínima 28 ° F 39 ° F 21 ° F (2005)
Degree Days  
Grados día de calefacción 18    
Moisture  
Punto de rocío 27 ° F    
Average Humidity 43    
Maximum Humidity 93    
Minimum Humidity 14    
Precipitación  
Precipitación 0.00 pul - - ()
Presión al nivel del mar  
Presión al nivel del mar 30.28 pul    
Viento  
Velocidad del viento 4 mph ()    
Velocidad máxima del viento 16 mph    
Max Gust Speed 26 mph    
Visibilidad 7.6 Millas    
Eventos      
Averages and records for this station are not official NWS values.
T = Trace of Precipitation, MM = Missing Value Source: Averaged Metar Reports

Daily Weather History Graph

Daily Weather History Graph

Search for Another Location

Airport:

Trip Planner

Search our weather history database for the weather conditions in past years. The results will help you decide how hot, cold, wet, or windy it might be!

Date:

Astronomía

Mar. 08, 2012 Salida Puesta
Hora real 7:35 AM CET 7:16 PM CET
Crepúsculo civil 7:10 AM CET 7:42 PM CET
Crepúsculo náutico 6:39 AM CET 8:12 PM CET
Crepúsculo astronómico 6:09 AM CET 8:42 PM CET
Luna 7:44 PM CET (3/8) 7:13 AM CET (3/8)
Horas de luz 12h 32m
Horas de luz
11h 40m
Luna llena, 100% of the Moon is Illuminated
Mar 8
Luna llena
Mar 15
Cuarto menguante
Mar 22
Nueva
Mar 30
Cuarto creciente
Abr 6
Luna llena

Hourly Weather History & Observations

Hora (CET) Temp. Vientos helados Punto de rocío Humedad Presión Visibilidad Wind Dir Velocidad del viento Velocidad de ráfagas Precip Eventos Condiciones
1:00 AM 38 ° F - 31 ° F 68% 30.49 pul 11 mi Oeste 2.3 mph - -  
6:00 AM 30.2 ° F - 28.4 ° F 93% 30.36 pul - Sin viento Sin viento - N/A   Despejado
6:30 AM 30.2 ° F - 26.6 ° F 86% 30.36 pul - Sin viento Sin viento - N/A   Despejado
7:00 AM 28 ° F - 26 ° F 86% 30.47 pul 6 mi OSO 3.5 mph - -   Nubes dispersas
7:00 AM 30.2 ° F - 26.6 ° F 86% 30.36 pul 6.2 mi Variable 2.3 mph - N/A   Parcialmente nublado
7:30 AM 30.2 ° F - 28.4 ° F 93% 30.36 pul 6.2 mi Variable 2.3 mph - N/A   Parcialmente nublado
8:00 AM 30.2 ° F 26.7 ° F 26.6 ° F 86% 30.33 pul 6.2 mi SSO 3.5 mph - N/A   Parcialmente nublado
8:30 AM 30.2 ° F - 28.4 ° F 93% 30.36 pul 6.2 mi Variable 1.2 mph - N/A   Parcialmente nublado
9:00 AM 35.6 ° F - 28.4 ° F 75% 30.36 pul 6.2 mi Sin viento Sin viento - N/A   Parcialmente nublado
9:30 AM 39.2 ° F - 28.4 ° F 65% 30.36 pul 6.2 mi Sin viento Sin viento - N/A   Parcialmente nublado
10:00 AM 41.0 ° F - 28.4 ° F 61% 30.36 pul 6.2 mi Sin viento Sin viento - N/A   Parcialmente nublado
10:30 AM 46.4 ° F - 30.2 ° F 53% 30.33 pul - Sin viento Sin viento - N/A   Despejado
11:00 AM 48.2 ° F - 30.2 ° F 50% 30.33 pul - Variable 2.3 mph - N/A   Despejado
11:30 AM 53.6 ° F - 28.4 ° F 38% 30.30 pul - Oeste 4.6 mph - N/A   Despejado
12:00 PM 57.2 ° F - 24.8 ° F 29% 30.30 pul - Variable 2.3 mph - N/A   Despejado
12:30 PM 60.8 ° F - 26.6 ° F 27% 30.27 pul - Variable 1.2 mph - N/A   Despejado
1:00 PM 63 ° F - 27 ° F 15% 30.25 pul 16 mi SO 2.3 mph - -   Despejado
1:00 PM 62.6 ° F - 24.8 ° F 24% 30.27 pul - Variable 2.3 mph - N/A   Despejado
1:30 PM 64.4 ° F - 26.6 ° F 24% 30.27 pul - Variable 6.9 mph - N/A   Despejado
2:00 PM 64.4 ° F - 26.6 ° F 24% 30.24 pul - ENE 8.1 mph - N/A   Despejado
2:30 PM 66.2 ° F - 28.4 ° F 24% 30.24 pul - ENE 8.1 mph - N/A   Despejado
3:00 PM 66.2 ° F - 28.4 ° F 24% 30.24 pul - ENE 12.7 mph - N/A   Despejado
3:30 PM 66.2 ° F - 26.6 ° F 23% 30.21 pul - ENE 8.1 mph - N/A   Despejado
4:00 PM 66.2 ° F - 24.8 ° F 21% 30.21 pul - NNE 9.2 mph - N/A   Despejado
4:30 PM 66.2 ° F - 23.0 ° F 19% 30.21 pul - NNE 12.7 mph - N/A   Despejado
5:00 PM 64.4 ° F - 26.6 ° F 24% 30.21 pul - NNE 11.5 mph - N/A   Despejado
5:30 PM 64.4 ° F - 26.6 ° F 24% 30.18 pul - NNE 11.5 mph - N/A   Despejado
6:00 PM 64.4 ° F - 26.6 ° F 24% 30.18 pul - NE 16.1 mph - N/A   Despejado
6:30 PM 62.6 ° F - 26.6 ° F 26% 30.21 pul - NE 15.0 mph 26.5 mph N/A   Despejado
7:00 PM 61 ° F - 25 ° F 14% 30.19 pul 25 mi NE 13.8 mph - -   Nubes dispersas
7:00 PM 62.6 ° F - 24.8 ° F 24% 30.21 pul - ENE 11.5 mph - N/A   Despejado
7:30 PM 60.8 ° F - 24.8 ° F 25% 30.21 pul - NE 10.4 mph - N/A   Despejado
8:00 PM 59.0 ° F - 26.6 ° F 29% 30.21 pul - NE 10.4 mph - N/A   Despejado
8:30 PM 59.0 ° F - 26.6 ° F 29% 30.24 pul - Este 9.2 mph - N/A   Despejado
9:00 PM 59.0 ° F - 26.6 ° F 29% 30.24 pul - ENE 9.2 mph - N/A   Despejado
9:30 PM 57.2 ° F - 26.6 ° F 31% 30.24 pul - Variable 2.3 mph - N/A   Despejado
10:00 PM 55.4 ° F - 26.6 ° F 33% 30.24 pul - Variable 2.3 mph - N/A   Despejado
10:30 PM 53.6 ° F - 26.6 ° F 35% 30.24 pul - Variable 2.3 mph - N/A   Despejado
11:00 PM 53.6 ° F - 26.6 ° F 35% 30.24 pul - Norte 4.6 mph - N/A   Despejado
11:30 PM 48.2 ° F - 26.6 ° F 43% 30.27 pul - Variable 1.2 mph - N/A   Despejado